Location: Czekanka
(50.4925°N, 19.2643°E)
Time: 08:27:23
(UTC+00:00)

SL-16 R/B - Pass Details

Date: 24 September 2024
Orbit: 842 x 846 km, 71.0° (Epoch: 09 October)

Event Time Altitude Azimuth Distance (km) Brightness Sun altitude
Rises 19:36:52 0° 258° (WSW) 3,401 5.9 -27.8°
Reaches altitude 10° 19:39:55 10° 273° (W) 2,468 5.3 -28.2°
Maximum altitude 19:44:11 21° 323° (NW) 1,795 4.6 -28.7°
Drops below altitude 10° 19:48:29 10° 12° (NNE) 2,474 4.9 -29.2°
Sets 19:51:33 0° 28° (NNE) 3,412 5.5 -29.6°
